Location: ??
(35.5052°N, 139.7262°E)
Time: 03:50:34
(UTC+00:00)

Meteor 2-1 Rocket - Pass Details

Date: 20 June 2021
Orbit: 828 x 908 km, 81.3° (Epoch: 26 July)

Event Time Altitude Azimuth Distance (km) Brightness Sun altitude
Rises 13:42:53 0° 353° (N) 3,381 8.5 -29.4°
Reaches altitude 10° 13:45:17 10° 356° (N) 2,449 7.5 -29.5°
Enters shadow 13:50:12 66° 34° (NE) 916 4.4 -29.8°
